Japanese version Home page |
Updated on September 27, 2024 |
|
Orbital ElementsEpoch 2024 Mar. 31.0 TT = JDT 2460400.5 T 2024 Mar. 8.24960 TT Rudenko q 1.6236238 (2000.0) P Q n 0.15475413 Peri. 105.56996 -0.78710727 -0.61182714 a 3.4359055 Node 36.80813 +0.50393545 -0.71105457 e 0.5274539 Incl. 7.50861 +0.35568413 -0.34650966 P 6.37 >From 487 observations 2017 Jan. 22-2024 Feb. 25, mean residual 0".3.
|
Finding Charts
|
Magnitudes Graphm1 = 7.5 + 5 log d + 36 log r(t - 20) [ ,0] ( - 2024 Mar. 8) m1 = 10.8 + 5 log d + 20.0 log r(t - 30) [0, ] (2024 Mar. 8 - )
|
The orbital elements are published on M.P.E.C. 2024-D126.
|